"Period start","avg(HW err(1)/warn(2) (#))","avg(Visibility (m))","avg(Weather code (#))","avg(Precip intensity (mm/h))","min(HW err(1)/warn(2) (#))","max(HW err(1)/warn(2) (#))","std(HW err(1)/warn(2) (#))","med(HW err(1)/warn(2) (#))","min(Visibility (m))","max(Visibility (m))","std(Visibility (m))","med(Visibility (m))","min(Weather code (#))","max(Weather code (#))","std(Weather code (#))","med(Weather code (#))","min(Precip intensity (mm/h))","max(Precip intensity (mm/h))","std(Precip intensity (mm/h))","med(Precip intensity (mm/h))"
2014-10-13 00:00:00,2,49798,0,0.00,2,2,0,2,47976,50000,607,50000,0,0,0,0,0.00,0.00,0.00,0.00
2014-10-13 00:10:00,2,48970,0,0.00,2,2,0,2,44523,50000,1669,50000,0,0,0,0,0.00,0.00,0.00,0.00
2014-10-13 00:20:00,2,49522,0,0.00,2,2,0,2,45218,50000,1435,50000,0,0,0,0,0.00,0.00,0.00,0.00
2014-10-13 00:30:00,2,49924,0,0.00,2,2,0,2,49243,50000,227,50000,0,0,0,0,0.00,0.00,0.00,0.00
2014-10-13 00:40:00,2,50000,0,0.00,2,2,0,2,50000,50000,0,50000,0,0,0,0,0.00,0.00,0.00,0.00
2014-10-13 00:50:00,2,49809,0,0.00,2,2,0,2,48440,50000,468,50000,0,0,0,0,0.00,0.00,0.00,0.00
2014-10-13 01:00:00,2,50000,0,0.00,2,2,0,2,50000,50000,0,50000,0,0,0,0,0.00,0.00,0.00,0.00
2014-10-13 01:10:00,2,50000,0,0.00,2,2,0,2,50000,50000,0,50000,0,0,0,0,0.00,0.00,0.00,0.00
2014-10-13 01:20:00,2,49187,0,0.00,2,2,0,2,45597,50000,1316,49880,0,0,0,0,0.00,0.00,0.00,0.00
2014-10-13 01:30:00,2,49526,0,0.00,2,2,0,2,47731,50000,703,50000,0,0,0,0,0.00,0.00,0.00,0.00
2014-10-13 01:40:00,2,49824,0,0.00,2,2,0,2,48395,50000,479,50000,0,0,0,0,0.00,0.00,0.00,0.00
2014-10-13 01:50:00,2,48887,0,0.00,2,2,0,2,43488,50000,2139,50000,0,0,0,0,0.00,0.00,0.00,0.00
2014-10-13 02:00:00,2,49447,0,0.00,2,2,0,2,46315,50000,1180,50000,0,0,0,0,0.00,0.00,0.00,0.00
2014-10-13 02:10:00,2,49770,0,0.00,2,2,0,2,47704,50000,689,50000,0,0,0,0,0.00,0.00,0.00,0.00
2014-10-13 02:20:00,2,48071,0,0.00,2,2,0,2,40618,50000,3667,50000,0,0,0,0,0.00,0.00,0.00,0.00
2014-10-13 02:30:00,2,49968,0,0.00,2,2,0,2,49685,50000,94,50000,0,0,0,0,0.00,0.00,0.00,0.00
2014-10-13 02:40:00,2,41660,0,0.00,2,2,0,2,28998,50000,7404,41587,0,0,0,0,0.00,0.00,0.00,0.00
2014-10-13 02:50:00,2,34802,0,0.00,2,2,0,2,24859,42656,6398,34446,0,0,0,0,0.00,0.00,0.00,0.00
2014-10-13 03:00:00,2,15981,0,0.00,2,2,0,2,11092,19611,3002,17451,0,0,0,0,0.00,0.00,0.00,0.00
2014-10-13 03:10:00,2,13710,0,0.00,2,2,0,2,10067,22428,3707,12146,0,0,0,0,0.00,0.00,0.00,0.00
2014-10-13 03:20:00,2,39707,0,0.00,2,2,0,2,21224,50000,11056,45610,0,0,0,0,0.00,0.00,0.00,0.00
2014-10-13 03:30:00,2,49581,0,0.00,2,2,0,2,48107,50000,682,50000,0,0,0,0,0.00,0.00,0.00,0.00
2014-10-13 03:40:00,2,46900,0,0.00,2,2,0,2,41873,50000,3016,47336,0,0,0,0,0.00,0.00,0.00,0.00
2014-10-13 03:50:00,2,45554,0,0.00,2,2,0,2,39866,50000,3850,44380,0,0,0,0,0.00,0.00,0.00,0.00
2014-10-13 04:00:00,2,49102,0,0.00,2,2,0,2,44931,50000,1681,50000,0,0,0,0,0.00,0.00,0.00,0.00
2014-10-13 04:10:00,2,47499,0,0.00,2,2,0,2,42864,50000,2420,48074,0,0,0,0,0.00,0.00,0.00,0.00
2014-10-13 04:20:00,2,49015,0,0.00,2,2,0,2,45046,50000,1525,49793,0,0,0,0,0.00,0.00,0.00,0.00
2014-10-13 04:30:00,2,48514,0,0.00,2,2,0,2,43303,50000,2208,50000,0,0,0,0,0.00,0.00,0.00,0.00
2014-10-13 04:40:00,2,49606,0,0.00,2,2,0,2,46814,50000,958,50000,0,0,0,0,0.00,0.00,0.00,0.00
2014-10-13 04:50:00,2,49614,0,0.00,2,2,0,2,47582,50000,739,50000,0,0,0,0,0.00,0.00,0.00,0.00
2014-10-13 05:00:00,2,49832,0,0.00,2,2,0,2,48319,50000,504,50000,0,0,0,0,0.00,0.00,0.00,0.00
2014-10-13 05:10:00,2,49018,0,0.00,2,2,0,2,45467,50000,1314,49252,0,0,0,0,0.00,0.00,0.00,0.00
2014-10-13 05:20:00,2,49025,0,0.00,2,2,0,2,46861,50000,1286,50000,0,0,0,0,0.00,0.00,0.00,0.00
2014-10-13 05:30:00,2,48210,0,0.00,2,2,0,2,44335,50000,2165,49324,0,0,0,0,0.00,0.00,0.00,0.00
2014-10-13 05:40:00,2,49701,0,0.00,2,2,0,2,47341,50000,793,50000,0,0,0,0,0.00,0.00,0.00,0.00
2014-10-13 05:50:00,2,49921,0,0.00,2,2,0,2,49566,50000,158,50000,0,0,0,0,0.00,0.00,0.00,0.00
2014-10-13 06:00:00,2,49962,0,0.00,2,2,0,2,49693,50000,92,50000,0,0,0,0,0.00,0.00,0.00,0.00
2014-10-13 06:10:00,2,48814,0,0.00,2,2,0,2,43482,50000,1988,50000,0,0,0,0,0.00,0.00,0.00,0.00
2014-10-13 06:20:00,2,48386,0,0.00,2,2,0,2,42137,50000,2269,48974,0,0,0,0,0.00,0.00,0.00,0.00
2014-10-13 06:30:00,2,48608,0,0.00,2,2,0,2,44115,50000,2125,49722,0,0,0,0,0.00,0.00,0.00,0.00
2014-10-13 06:40:00,2,49418,0,0.00,2,2,0,2,47264,50000,949,50000,0,0,0,0,0.00,0.00,0.00,0.00
2014-10-13 06:50:00,2,49988,0,0.00,2,2,0,2,49876,50000,37,50000,0,0,0,0,0.00,0.00,0.00,0.00
2014-10-13 07:00:00,2,49944,0,0.00,2,2,0,2,49444,50000,167,50000,0,0,0,0,0.00,0.00,0.00,0.00
2014-10-13 07:10:00,2,50000,0,0.00,2,2,0,2,50000,50000,0,50000,0,0,0,0,0.00,0.00,0.00,0.00
2014-10-13 07:20:00,2,50000,0,0.00,2,2,0,2,50000,50000,0,50000,0,0,0,0,0.00,0.00,0.00,0.00
2014-10-13 07:30:00,2,49794,0,0.00,2,2,0,2,48054,50000,581,50000,0,0,0,0,0.00,0.00,0.00,0.00
2014-10-13 07:40:00,2,49955,0,0.00,2,2,0,2,49552,50000,134,50000,0,0,0,0,0.00,0.00,0.00,0.00
2014-10-13 07:50:00,2,49891,0,0.00,2,2,0,2,48909,50000,327,50000,0,0,0,0,0.00,0.00,0.00,0.00
2014-10-13 08:00:00,2,49916,0,0.00,2,2,0,2,49162,50000,251,50000,0,0,0,0,0.00,0.00,0.00,0.00
2014-10-13 08:10:00,2,49698,0,0.00,2,2,0,2,47460,50000,760,50000,0,0,0,0,0.00,0.00,0.00,0.00
2014-10-13 08:20:00,2,50000,0,0.00,2,2,0,2,50000,50000,0,50000,0,0,0,0,0.00,0.00,0.00,0.00
2014-10-13 08:30:00,2,50000,0,0.00,2,2,0,2,50000,50000,0,50000,0,0,0,0,0.00,0.00,0.00,0.00
2014-10-13 08:40:00,2,50000,0,0.00,2,2,0,2,50000,50000,0,50000,0,0,0,0,0.00,0.00,0.00,0.00
2014-10-13 08:50:00,2,50000,0,0.00,2,2,0,2,50000,50000,0,50000,0,0,0,0,0.00,0.00,0.00,0.00
2014-10-13 09:00:00,2,49841,0,0.00,2,2,0,2,49188,50000,301,50000,0,0,0,0,0.00,0.00,0.00,0.00
2014-10-13 09:10:00,2,50000,0,0.00,2,2,0,2,50000,50000,0,50000,0,0,0,0,0.00,0.00,0.00,0.00
2014-10-13 09:20:00,2,50000,0,0.00,2,2,0,2,50000,50000,0,50000,0,0,0,0,0.00,0.00,0.00,0.00
2014-10-13 09:30:00,2,50000,0,0.00,2,2,0,2,50000,50000,0,50000,0,0,0,0,0.00,0.00,0.00,0.00
2014-10-13 09:40:00,2,50000,0,0.00,2,2,0,2,50000,50000,0,50000,0,0,0,0,0.00,0.00,0.00,0.00
2014-10-13 09:50:00,2,50000,0,0.00,2,2,0,2,50000,50000,0,50000,0,0,0,0,0.00,0.00,0.00,0.00
2014-10-13 10:00:00,2,50000,0,0.00,2,2,0,2,50000,50000,0,50000,0,0,0,0,0.00,0.00,0.00,0.00
2014-10-13 10:10:00,2,50000,0,0.00,2,2,0,2,50000,50000,0,50000,0,0,0,0,0.00,0.00,0.00,0.00
2014-10-13 10:20:00,2,50000,0,0.00,2,2,0,2,50000,50000,0,50000,0,0,0,0,0.00,0.00,0.00,0.00
2014-10-13 10:30:00,2,50000,0,0.00,2,2,0,2,50000,50000,0,50000,0,0,0,0,0.00,0.00,0.00,0.00
2014-10-13 10:40:00,2,50000,0,0.00,2,2,0,2,50000,50000,0,50000,0,0,0,0,0.00,0.00,0.00,0.00
2014-10-13 10:50:00,2,50000,0,0.00,2,2,0,2,50000,50000,0,50000,0,0,0,0,0.00,0.00,0.00,0.00
2014-10-13 11:00:00,2,50000,0,0.00,2,2,0,2,50000,50000,0,50000,0,0,0,0,0.00,0.00,0.00,0.00
2014-10-13 11:10:00,2,50000,0,0.00,2,2,0,2,50000,50000,0,50000,0,0,0,0,0.00,0.00,0.00,0.00
2014-10-13 11:20:00,2,49982,0,0.00,2,2,0,2,49820,50000,54,50000,0,0,0,0,0.00,0.00,0.00,0.00
2014-10-13 11:30:00,2,50000,0,0.00,2,2,0,2,50000,50000,0,50000,0,0,0,0,0.00,0.00,0.00,0.00
2014-10-13 11:40:00,2,49895,0,0.00,2,2,0,2,48949,50000,315,50000,0,0,0,0,0.00,0.00,0.00,0.00
2014-10-13 11:50:00,2,50000,0,0.00,2,2,0,2,50000,50000,0,50000,0,0,0,0,0.00,0.00,0.00,0.00
2014-10-13 12:00:00,2,49839,0,0.00,2,2,0,2,48387,50000,484,50000,0,0,0,0,0.00,0.00,0.00,0.00
2014-10-13 12:10:00,2,50000,0,0.00,2,2,0,2,50000,50000,0,50000,0,0,0,0,0.00,0.00,0.00,0.00
2014-10-13 12:20:00,2,50000,0,0.00,2,2,0,2,50000,50000,0,50000,0,0,0,0,0.00,0.00,0.00,0.00
2014-10-13 12:30:00,2,50000,0,0.00,2,2,0,2,50000,50000,0,50000,0,0,0,0,0.00,0.00,0.00,0.00
2014-10-13 12:40:00,2,50000,0,0.00,2,2,0,2,50000,50000,0,50000,0,0,0,0,0.00,0.00,0.00,0.00
2014-10-13 12:50:00,2,49907,0,0.00,2,2,0,2,49074,50000,278,50000,0,0,0,0,0.00,0.00,0.00,0.00
2014-10-13 13:00:00,2,50000,0,0.00,2,2,0,2,50000,50000,0,50000,0,0,0,0,0.00,0.00,0.00,0.00
2014-10-13 13:10:00,2,49275,0,0.00,2,2,0,2,44945,50000,1513,50000,0,0,0,0,0.00,0.00,0.00,0.00
2014-10-13 13:20:00,2,50000,0,0.00,2,2,0,2,50000,50000,0,50000,0,0,0,0,0.00,0.00,0.00,0.00
2014-10-13 13:30:00,2,50000,0,0.00,2,2,0,2,50000,50000,0,50000,0,0,0,0,0.00,0.00,0.00,0.00
2014-10-13 13:40:00,2,46524,0,0.00,2,2,0,2,35151,50000,5689,50000,0,0,0,0,0.00,0.00,0.00,0.00
2014-10-13 13:50:00,2,45056,14,0.00,2,2,0,2,29702,50000,6121,46253,0,71,28,0,0.00,0.00,0.00,0.00
2014-10-13 14:00:00,2,49999,8,0.00,2,2,0,2,49994,50000,2,50000,0,78,23,0,0.00,0.00,0.00,0.00
2014-10-13 14:10:00,2,50000,0,0.00,2,2,0,2,50000,50000,0,50000,0,0,0,0,0.00,0.00,0.00,0.00
2014-10-13 14:20:00,2,50000,0,0.00,2,2,0,2,50000,50000,0,50000,0,0,0,0,0.00,0.00,0.00,0.00
2014-10-13 14:30:00,2,49495,0,0.00,2,2,0,2,47228,50000,1015,50000,0,0,0,0,0.00,0.00,0.00,0.00
2014-10-13 14:40:00,2,49256,0,0.00,2,2,0,2,46943,50000,1022,50000,0,0,0,0,0.00,0.00,0.00,0.00
2014-10-13 14:50:00,2,49893,0,0.00,2,2,0,2,49141,50000,258,50000,0,0,0,0,0.00,0.00,0.00,0.00
2014-10-13 15:00:00,2,50000,0,0.00,2,2,0,2,50000,50000,0,50000,0,0,0,0,0.00,0.00,0.00,0.00
2014-10-13 15:10:00,2,50000,0,0.00,2,2,0,2,50000,50000,0,50000,0,0,0,0,0.00,0.00,0.00,0.00
2014-10-13 15:20:00,2,50000,0,0.00,2,2,0,2,50000,50000,0,50000,0,0,0,0,0.00,0.00,0.00,0.00
2014-10-13 15:30:00,2,50000,0,0.00,2,2,0,2,50000,50000,0,50000,0,0,0,0,0.00,0.00,0.00,0.00
2014-10-13 15:40:00,2,49712,0,0.00,2,2,0,2,48073,50000,581,50000,0,0,0,0,0.00,0.00,0.00,0.00
2014-10-13 15:50:00,2,50000,0,0.00,2,2,0,2,50000,50000,0,50000,0,0,0,0,0.00,0.00,0.00,0.00
2014-10-13 16:00:00,2,49734,0,0.00,2,2,0,2,47493,50000,748,50000,0,0,0,0,0.00,0.00,0.00,0.00
2014-10-13 16:10:00,2,49982,0,0.00,2,2,0,2,49818,50000,55,50000,0,0,0,0,0.00,0.00,0.00,0.00
2014-10-13 16:20:00,2,49954,0,0.00,2,2,0,2,49766,50000,93,50000,0,0,0,0,0.00,0.00,0.00,0.00
2014-10-13 16:30:00,2,50000,0,0.00,2,2,0,2,50000,50000,0,50000,0,0,0,0,0.00,0.00,0.00,0.00
2014-10-13 16:40:00,2,50000,0,0.00,2,2,0,2,50000,50000,0,50000,0,0,0,0,0.00,0.00,0.00,0.00
2014-10-13 16:50:00,2,50000,0,0.00,2,2,0,2,50000,50000,0,50000,0,0,0,0,0.00,0.00,0.00,0.00
2014-10-13 17:00:00,2,50000,0,0.00,2,2,0,2,50000,50000,0,50000,0,0,0,0,0.00,0.00,0.00,0.00
2014-10-13 17:10:00,2,49880,0,0.00,2,2,0,2,48924,50000,321,50000,0,0,0,0,0.00,0.00,0.00,0.00
2014-10-13 17:20:00,2,49964,0,0.00,2,2,0,2,49641,50000,108,50000,0,0,0,0,0.00,0.00,0.00,0.00
2014-10-13 17:30:00,2,49855,0,0.00,2,2,0,2,48552,50000,434,50000,0,0,0,0,0.00,0.00,0.00,0.00
2014-10-13 17:40:00,2,50000,0,0.00,2,2,0,2,50000,50000,0,50000,0,0,0,0,0.00,0.00,0.00,0.00
2014-10-13 17:50:00,2,50000,0,0.00,2,2,0,2,50000,50000,0,50000,0,0,0,0,0.00,0.00,0.00,0.00
2014-10-13 18:00:00,2,49967,0,0.00,2,2,0,2,49672,50000,98,50000,0,0,0,0,0.00,0.00,0.00,0.00
2014-10-13 18:10:00,2,50000,0,0.00,2,2,0,2,50000,50000,0,50000,0,0,0,0,0.00,0.00,0.00,0.00
2014-10-13 18:20:00,2,50000,0,0.00,2,2,0,2,50000,50000,0,50000,0,0,0,0,0.00,0.00,0.00,0.00
2014-10-13 18:30:00,2,50000,0,0.00,2,2,0,2,50000,50000,0,50000,0,0,0,0,0.00,0.00,0.00,0.00
2014-10-13 18:40:00,2,50000,0,0.00,2,2,0,2,50000,50000,0,50000,0,0,0,0,0.00,0.00,0.00,0.00
2014-10-13 18:50:00,2,50000,0,0.00,2,2,0,2,50000,50000,0,50000,0,0,0,0,0.00,0.00,0.00,0.00
2014-10-13 19:00:00,2,50000,0,0.00,2,2,0,2,50000,50000,0,50000,0,0,0,0,0.00,0.00,0.00,0.00
2014-10-13 19:10:00,2,50000,0,0.00,2,2,0,2,50000,50000,0,50000,0,0,0,0,0.00,0.00,0.00,0.00
2014-10-13 19:20:00,2,50000,0,0.00,2,2,0,2,50000,50000,0,50000,0,0,0,0,0.00,0.00,0.00,0.00
2014-10-13 19:30:00,2,50000,0,0.00,2,2,0,2,50000,50000,0,50000,0,0,0,0,0.00,0.00,0.00,0.00
2014-10-13 19:40:00,2,50000,0,0.00,2,2,0,2,50000,50000,0,50000,0,0,0,0,0.00,0.00,0.00,0.00
2014-10-13 19:50:00,2,49911,0,0.00,2,2,0,2,49107,50000,268,50000,0,0,0,0,0.00,0.00,0.00,0.00
2014-10-13 20:00:00,2,50000,0,0.00,2,2,0,2,50000,50000,0,50000,0,0,0,0,0.00,0.00,0.00,0.00
2014-10-13 20:10:00,2,50000,0,0.00,2,2,0,2,50000,50000,0,50000,0,0,0,0,0.00,0.00,0.00,0.00
2014-10-13 20:20:00,2,50000,0,0.00,2,2,0,2,50000,50000,0,50000,0,0,0,0,0.00,0.00,0.00,0.00
2014-10-13 20:30:00,2,50000,0,0.00,2,2,0,2,50000,50000,0,50000,0,0,0,0,0.00,0.00,0.00,0.00
2014-10-13 20:40:00,2,50000,0,0.00,2,2,0,2,50000,50000,0,50000,0,0,0,0,0.00,0.00,0.00,0.00
2014-10-13 20:50:00,2,50000,0,0.00,2,2,0,2,50000,50000,0,50000,0,0,0,0,0.00,0.00,0.00,0.00
2014-10-13 21:00:00,2,50000,0,0.00,2,2,0,2,50000,50000,0,50000,0,0,0,0,0.00,0.00,0.00,0.00
2014-10-13 21:10:00,2,50000,0,0.00,2,2,0,2,50000,50000,0,50000,0,0,0,0,0.00,0.00,0.00,0.00
2014-10-13 21:20:00,2,50000,0,0.00,2,2,0,2,50000,50000,0,50000,0,0,0,0,0.00,0.00,0.00,0.00
2014-10-13 21:30:00,2,50000,0,0.00,2,2,0,2,50000,50000,0,50000,0,0,0,0,0.00,0.00,0.00,0.00
2014-10-13 21:40:00,2,50000,0,0.00,2,2,0,2,50000,50000,0,50000,0,0,0,0,0.00,0.00,0.00,0.00
2014-10-13 21:50:00,2,50000,0,0.00,2,2,0,2,50000,50000,0,50000,0,0,0,0,0.00,0.00,0.00,0.00
2014-10-13 22:00:00,2,50000,0,0.00,2,2,0,2,50000,50000,0,50000,0,0,0,0,0.00,0.00,0.00,0.00
2014-10-13 22:10:00,2,49604,0,0.00,2,2,0,2,48232,50000,666,50000,0,0,0,0,0.00,0.00,0.00,0.00
2014-10-13 22:20:00,2,50000,0,0.00,2,2,0,2,50000,50000,0,50000,0,0,0,0,0.00,0.00,0.00,0.00
2014-10-13 22:30:00,2,49980,0,0.00,2,2,0,2,49795,50000,62,50000,0,0,0,0,0.00,0.00,0.00,0.00
2014-10-13 22:40:00,2,50000,0,0.00,2,2,0,2,50000,50000,0,50000,0,0,0,0,0.00,0.00,0.00,0.00
2014-10-13 22:50:00,2,49951,0,0.00,2,2,0,2,49506,50000,148,50000,0,0,0,0,0.00,0.00,0.00,0.00
2014-10-13 23:00:00,2,49811,0,0.00,2,2,0,2,49062,50000,316,50000,0,0,0,0,0.00,0.00,0.00,0.00
2014-10-13 23:10:00,2,48450,0,0.00,2,2,0,2,44478,50000,2098,49524,0,0,0,0,0.00,0.00,0.00,0.00
2014-10-13 23:20:00,2,44018,0,0.00,2,2,0,2,37912,50000,3824,43441,0,0,0,0,0.00,0.00,0.00,0.00
2014-10-13 23:30:00,2,42325,0,0.00,2,2,0,2,34274,50000,4937,43320,0,0,0,0,0.00,0.00,0.00,0.00
2014-10-13 23:40:00,2,40335,0,0.00,2,2,0,2,30422,50000,7710,40664,0,0,0,0,0.00,0.00,0.00,0.00
2014-10-13 23:50:00,2,44770,0,0.00,2,2,0,2,31661,50000,5538,46052,0,0,0,0,0.00,0.00,0.00,0.00
